Location: Nebel
(54.6502°N, 8.3475°E)
Time: 22:07:23
(UTC+01:00)

Envisat - Pass Details

Date: 11 December 2022
Orbit: 763 x 765 km, 98.2° (Epoch: 08 February)

Event Time Altitude Azimuth Distance (km) Brightness Sun altitude
Rises 03:38:45 0° 22° (NNE) 3,248 6.7 -41.5°
Reaches altitude 10° 03:41:32 10° 37° (NE) 2,316 6.0 -41.1°
Enters shadow 03:42:51 16° 49° (NE) 1,950 5.6 -40.9°
